Location: Arcusa
(42.3167°N, 0.0833°W)
Time: 12:25:51
(UTC+00:00)

Cosmos 2058 Rocket - Pass Details

Date: 25 January 2020
Orbit: 610 x 639 km, 82.5° (Epoch: 16 February)

Event Time Altitude Azimuth Distance (km) Brightness Sun altitude
Rises 06:28:26 0° 219° (SW) 2,886 6.3 -9.9°
Reaches altitude 10° 06:31:03 10° 234° (SW) 1,980 5.3 -9.4°
Maximum altitude 06:34:32 23° 287° (WNW) 1,327 4.1 -8.8°
Drops below altitude 10° 06:38:01 10° 340° (NNW) 1,980 5.3 -8.2°
Sets 06:40:39 0° 355° (N) 2,887 6.3 -7.7°
